STARLINK-30511, 57978

Orbit data source: Space-Track

STARLINK-30511, 57978 is a payload satellite owned by SpaceX/Seattle (US) in LEO that was launched on Sat, 30 Sep 2023 UTC via an FALCON 9 launch vehicle from the Air Force Eastern Test Range (AFETR). Payload-class satellites include a variety of spacecraft equipped with specific instruments for various scientific and technological missions. These include communications satellites like Starlink; space stations such as the ISS; scientific satellites like the Hubble; Earth observation satellites from companies like Planet Labs, Umbra, and HawkEye 360; GPS; miniature CubeSats for education and research; and military/defense satellites.

Loading next visibility...
Identifier
57978, 2023-151Q
Orbit
LEO
Country
Flag of USUS
Related business
Manufacturer
SpaceX/Seattle
Mission
Operational Commercial Communications
Bus & Motor
STARLINK V2M, Unknown motor
Mass
730 kg wet, ~700 kg dry
Launch date (UTC)
2023-09-30 (3 years ago)
Launch vehicle
FALCON 9
Launch site
Air Force Eastern Test Range (AFETR)
Object type
Payload
Rocket body
Debris
Shape & HBR
Box + 2 Pan, 17.7 m
Radar Cross Section
33.884 m², Large (>1 m²)

Expand to show TLE details & history
Last TLE update: 1 day ago

TLE from 1 day ago
0 STARLINK-30511
1 57978U 23151Q   26236.41288400  .00009793  00000-0  36533-3 0  9995
2 57978  43.0053 123.5486 0001652 253.6894 106.3777 15.27543085161248
Epoch: 2026-08-24T09:54Z
TLE epoch observation values (Epoch: 2026-08-24T09:54:33.177Z)
Latitude
0.00004°
Longitude
2.21546°
Altitude
483.255 km
Speed
7.625 km/s
True Right ascension
08h 14m 11s
True Declination
0° 00' 00"
Sunlit
Object was in daylight at epoch
Visualization orbit readout
Latitude
Unknown
Longitude
Unknown
Altitude
Unknown
Speed
Unknown
Apparent Right ascension
Unknown
Apparent Declination
Unknown
Sunlit
N/A
Visualization observer readout
Local Sidereal Time
00:48:28
Azimuth
Unknown
Elevation
Unknown
Doppler factor
Unknown
Orbital elements
Apogee altitude
486.238 km
Perigee altitude
483.97 km
Semi-major axis
6,863.241 km
Eccentricity
0.00017
Inclination
43.0053°
RAAN
123.5486°
Arg. of periapsis
253.6894°
True anomaly
106.39586°
Mean anomaly
106.3777°
Eccentric anomaly
106.38678°
Mean motion
3.81724 °/min
Orbital period
94.31 mins
BSTAR
0.00036533
Loading maneuver chart data...
Computing Atmospheric mass density...
Loading historical data...
Loading historical data...
Loading historical data...
Loading historical data...
Loading historical data...
Loading historical data...
Loading historical data...

Documentation

Showing up to 5 results
|